This is the latest recevied weather packets stored in our database for station/object KC5AV. If no packets are shown the sender has not sent any weather packets the latest 10 day(s).
| Time | Temp. | Humidity | Pressure | Rain* | Wind** | Luminosity | Snow |
|---|---|---|---|---|---|---|---|
| 1777907610 | 22.78° C | 57% | 1016.6 hPa | 0 mm | - | 646 W/m² | - |
| 1777907306 | 22.78° C | 59% | 1016.4 hPa | 0 mm | - | 455 W/m² | - |
| 1777907002 | 22.22° C | 58% | 1016.5 hPa | 0 mm | - | 654 W/m² | - |
| 1777906700 | 22.22° C | 58% | 1016.6 hPa | 0 mm | - | 594 W/m² | - |
| 1777906396 | 21.67° C | 60% | 1016.8 hPa | 0 mm | - | 607 W/m² | - |
| 1777906093 | 21.67° C | 60% | 1016.4 hPa | 0 mm | - | 553 W/m² | - |
| 1777905789 | 21.67° C | 60% | 1016.7 hPa | 0 mm | - | 555 W/m² | - |
| 1777905487 | 21.67° C | 63% | 1016.7 hPa | 0 mm | - | 551 W/m² | - |
| 1777905184 | 21.11° C | 64% | 1016.6 hPa | 0 mm | - | 526 W/m² | - |
| 1777904881 | 21.11° C | 66% | 1016.6 hPa | 0 mm | - | 509 W/m² | - |
| 1777904578 | 20.56° C | 66% | 1016.9 hPa | 0 mm | - | 490 W/m² | - |
| 1777904275 | 20.56° C | 66% | 1016.7 hPa | 0 mm | - | 455 W/m² | - |
| 1777903972 | 20° C | 69% | 1016.9 hPa | 0 mm | - | 416 W/m² | - |
| 1777903669 | 18.89° C | 69% | 1016.7 hPa | 0 mm | - | 376 W/m² | - |
| 1777903364 | 18.89° C | 69% | 1016.6 hPa | 0 mm | - | 392 W/m² | - |
| 1777903061 | 17.78° C | 72% | 1017.1 hPa | 0 mm | - | 408 W/m² | - |
| 1777902757 | 17.22° C | 75% | 1016.9 hPa | 0 mm | - | 347 W/m² | - |
| 1777902455 | 16.67° C | 76% | 1016.9 hPa | 0 mm | - | 149 W/m² | - |
| 1777902152 | 16.67° C | 75% | 1016.9 hPa | 0 mm | - | 108 W/m² | - |
| 1777901850 | 16.67° C | 77% | 1016.9 hPa | 0 mm | - | 108 W/m² | - |
| 1777901547 | 16.67° C | 80% | 1016.9 hPa | 0 mm | - | 122 W/m² | - |
| 1777901245 | 16.11° C | 79% | 1016.9 hPa | 0 mm | - | 91 W/m² | - |
| 1777900942 | 15.56° C | 81% | 1016.9 hPa | 0 mm | - | 81 W/m² | - |
| 1777900639 | 15.56° C | 82% | 1017 hPa | 0 mm | - | 72 W/m² | - |
| 1777900336 | 15° C | 84% | 1016.6 hPa | 0 mm | - | 67 W/m² | - |
* Rain latest hour (hover to see other rain measurements)
** Current wind speed in m/s (hover to see current wind gust speed)